User: anonymous   Login
Location: Cincinnati Observatory Center
(39.1389°N, 84.4225°W)
Time: 07:45:51
(UTC-04:00)
Language:

JAS-1B - Orbit

View from above orbital plane
View from above orbital plane
View from above satellite
View from above satellite

Ground track
Ground track

The orbit data is extracted from the following two-line orbital elements,

1 20480U 90013C   16178.17053309 -.00000051  00000-0 -49772-4 0  9999
2 20480  99.0220  12.7143 0540981 117.8838 353.4143 12.83411571236051
Epoch (UTC): 26 June 2016 04:05:34
Eccentricity: 0.0540981
inclination: 99.0220°
perigee height: 911 km
apogee height: 1744 km
right ascension of ascending node: 12.7143°
argument of perigee: 117.8838°
revolutions per day: 12.83411571
mean anomaly at epoch: 353.4143°
orbit number at epoch: 23605

The dashed part of the orbit path shows where the satellite is in the earth's shadow,  

DLR